Greenville, AL

11:44 AM CDT on May 25, 2018 (GMT -0500)
Greenville Municipal

Weather History for KPRN - April, 2013

Change the Weather History Date:

Sunday, April 28, 2013

  Actual Average Record
Temperature  
Mean Temperature 70 °F -  
Max Temperature 77 °F 80 °F 94 °F (1969)
Min Temperature 63 °F 54 °F 38 °F (1978)
Cooling Degree Days 5    
Growing Degree Days 20 (Base 50)    
Moisture  
Dew Point 64 °F    
Average Humidity 83    
Maximum Humidity 94    
Minimum Humidity 62    
Precipitation  
Precipitation 0.06 in - - ()
Sea Level Pressure  
Sea Level Pressure 30.03 in    
Wind  
Wind Speed 6 mph (South)    
Max Wind Speed 14 mph    
Max Gust Speed 21 mph    
Visibility 9 miles    
Events Rain , Thunderstorm    
Averages and records for this station are not official NWS values.
T = Trace of Precipitation, MM = Missing Value Source: NWS Daily Summary

Daily Weather History Graph

Daily Weather History Graph

Search for Another Location

Airport or City:

Astronomy

Apr. 28, 2013 Rise Set
Actual Time 6:03 AM CDT 7:24 PM CDT
Civil Twilight 5:37 AM CDT 7:50 PM CDT
Nautical Twilight 5:06 AM CDT 8:21 PM CDT
Astronomical Twilight 4:35 AM CDT 8:53 PM CDT
Moon 10:48 PM CDT (4/28) 8:26 AM CDT (4/28)
Length of Visible Light 14h 12m
Length of Day
13h 21m
Waning Gibbous, 88% of the Moon is Illuminated
Apr 28
Waning Gibbous
May 2
Last Quarter
May 9
New
May 17
First Quarter
May 24
Full

Hourly Weather History & Observations

Time (CDT) Temp. Dew Point Humidity Pressure Visibility Wind Dir Wind Speed Gust Speed Precip Events Conditions
12:19 AM 66.2 °F 64.4 °F 94% 30.10 in 8.0 mi South 5.8 mph - N/A   Mostly Cloudy
12:27 AM 66.2 °F 64.4 °F 94% 30.10 in 8.0 mi South 6.9 mph - N/A   Overcast
12:56 AM 66.9 °F 64.9 °F 93% 30.09 in 7.0 mi SSW 6.9 mph - N/A   Overcast
1:56 AM 68.0 °F 64.9 °F 90% 30.06 in 8.0 mi South 5.8 mph - N/A   Overcast
2:20 AM 68.0 °F 64.4 °F 88% 30.06 in 8.0 mi South 6.9 mph - N/A   Overcast
2:48 AM 66.2 °F 64.4 °F 94% 30.05 in 8.0 mi SSW 3.5 mph - N/A   Overcast
2:56 AM 68.0 °F 64.9 °F 90% 30.04 in 7.0 mi South 3.5 mph - N/A   Overcast
3:34 AM 68.0 °F 64.4 °F 88% 30.05 in 8.0 mi SSW 5.8 mph - N/A   Overcast
3:56 AM 66.9 °F 64.9 °F 93% 30.04 in 8.0 mi SSW 5.8 mph - N/A   Overcast
4:56 AM 68.0 °F 64.9 °F 90% 30.04 in 8.0 mi SSW 6.9 mph - N/A   Overcast
5:56 AM 68.0 °F 64.9 °F 90% 30.05 in 7.0 mi South 4.6 mph - N/A   Overcast
6:56 AM 68.0 °F 64.9 °F 90% 30.05 in 6.0 mi South 5.8 mph - N/A   Mostly Cloudy
7:22 AM 68.0 °F 66.2 °F 94% 30.06 in 5.0 mi South 5.8 mph - N/A   Overcast
7:56 AM 69.1 °F 66.0 °F 90% 30.05 in 6.0 mi South 5.8 mph - N/A   Overcast
8:22 AM 69.8 °F 66.2 °F 88% 30.06 in 7.0 mi SSE 6.9 mph - N/A   Mostly Cloudy
8:56 AM 70.0 °F 64.9 °F 84% 30.06 in 9.0 mi SSE 6.9 mph - N/A   Mostly Cloudy
9:07 AM 71.6 °F 64.4 °F 78% 30.06 in 10.0 mi South 9.2 mph - N/A   Mostly Cloudy
9:27 AM 71.6 °F 64.4 °F 78% 30.06 in 10.0 mi South 9.2 mph - N/A   Scattered Clouds
9:44 AM 73.4 °F 64.4 °F 73% 30.06 in 10.0 mi SSE 8.1 mph - N/A   Mostly Cloudy
9:56 AM 73.0 °F 64.9 °F 76% 30.04 in 10.0 mi South 9.2 mph - N/A   Mostly Cloudy
10:09 AM 73.4 °F 64.4 °F 73% 30.05 in 10.0 mi South 8.1 mph - N/A   Scattered Clouds
10:23 AM 73.4 °F 64.4 °F 73% 30.05 in 10.0 mi South 8.1 mph - N/A   Mostly Cloudy
10:39 AM 75.2 °F 64.4 °F 69% 30.05 in 10.0 mi South 11.5 mph - N/A   Mostly Cloudy
10:56 AM 75.9 °F 64.0 °F 67% 30.04 in 10.0 mi SSW 10.4 mph 16.1 mph N/A   Mostly Cloudy
11:56 AM 77.0 °F 64.0 °F 64% 30.02 in 10.0 mi South 13.8 mph 20.7 mph N/A   Scattered Clouds
12:56 PM 77.0 °F 63.0 °F 62% 30.00 in 10.0 mi SSW 9.2 mph - N/A   Mostly Cloudy
1:14 PM 75.2 °F 62.6 °F 65% 30.01 in 10.0 mi SSE 9.2 mph - N/A Thunderstorm Thunderstorm
1:56 PM 70.0 °F 66.0 °F 87% 30.00 in 10.0 mi SSE 6.9 mph - 0.05 in Rain , Thunderstorm Light Thunderstorms and Rain
2:21 PM 71.6 °F 66.2 °F 83% 30.00 in 10.0 mi SW 3.5 mph - 0.01 in   Partly Cloudy
2:56 PM 73.0 °F 66.0 °F 79% 29.97 in 10.0 mi Calm Calm - 0.01 in   Partly Cloudy
3:56 PM 73.0 °F 64.0 °F 73% 29.97 in 10.0 mi WSW 3.5 mph - N/A   Clear
4:56 PM 71.1 °F 64.9 °F 81% 29.98 in 10.0 mi West 9.2 mph - 0.00 in   Scattered Clouds
5:56 PM 70.0 °F 63.0 °F 78% 29.96 in 10.0 mi WNW 5.8 mph - N/A   Clear
6:56 PM 68.0 °F 60.1 °F 76% 29.99 in 10.0 mi WNW 9.2 mph - N/A   Partly Cloudy
7:56 PM 66.0 °F 60.1 °F 81% 29.97 in 10.0 mi NW 4.6 mph - N/A   Clear
8:56 PM 63.0 °F 60.1 °F 90% 29.97 in 10.0 mi Calm Calm - N/A   Clear
9:56 PM 63.0 °F 60.1 °F 90% 29.97 in 10.0 mi SE 4.6 mph - N/A   Scattered Clouds
10:56 PM 63.0 °F 60.1 °F 90% 29.97 in 10.0 mi SE 4.6 mph - N/A   Mostly Cloudy
11:56 PM 63.0 °F 60.1 °F 90% 29.96 in 10.0 mi SE 4.6 mph - N/A   Scattered Clouds